Regional Weather Roundup
Issued by NWS

Home | Current Version | Previous Version | Graphics & Text | Print | Product List | Glossary Off
Versions: 1 2 3 4 5 6 7 8 9 10 11 12 13 14 15 16 17 18 19 20 21 22 23 24 25 26 27 28 29 30 31 32 33 34 35 36 37 38 39 40 41 42 43 44 45 46 47 48 49 50

000
ASUS43 KTOP 121508
RWRKS

WEATHER ROUNDUP FOR KANSAS
NATIONAL WEATHER SERVICE GOODLAND KS
1000 AM CDT SAT JUL 12 2014

NOTE:  "FAIR" INDICATES FEW OR NO CLOUDS BELOW 12,000 FEET WITH NO
SIGNIFICANT WEATHER AND/OR OBSTRUCTIONS TO VISIBILITY.

KSZ001>006-013>018-027>032-041>047-121600-
NORTHWEST KANSAS

CITY           SKY/WX    TMP DP  RH WIND       PRES   REMARKS
GOODLAND       MOSUNNY   77  67  71 N14       30.11R
HAYS           SUNNY     82  59  44 SW18      30.03S
HILL CITY      SUNNY     85  62  46 SW13      30.01S
RUSSELL        SUNNY     82  65  56 S23G31    30.00F
$$

KSZ061>065-074>080-084>089-121600-
SOUTHWEST KANSAS

CITY           SKY/WX    TMP DP  RH WIND       PRES   REMARKS
DODGE CITY     SUNNY     82  62  50 SW21      30.08F
ELKHART          N/A     80  61  52 SW13        N/A
GARDEN CITY    SUNNY     82  63  52 SW16G26   30.07F
GREAT BEND     SUNNY     82  66  57 SW17      30.04S
LIBERAL        SUNNY     82  63  51 SW22      30.14S
PRATT          SUNNY     81  63  54 SW18G24   30.09F
$$

KSZ066>073-081>083-090>101-121600-
SOUTHEAST KANSAS

CITY           SKY/WX    TMP DP  RH WIND       PRES   REMARKS
CHANUTE        SUNNY     83  66  56 SW15      30.10S
COFFEYVILLE    SUNNY     84  67  56 S14       30.10S
HUTCHINSON     SUNNY     85  64  49 SW17      30.07S
MEDICINE LODGE   N/A     84  65  52 SW10G20   30.09S
NEWTON         SUNNY     82  63  51 SW16G22   30.11S
PARSONS        SUNNY     83  67  58 S9        30.12S
WICHITA INTL   MOSUNNY   83  65  54 SW15      30.08F
WICHITA JABRA  SUNNY     83  67  58 SW15      30.09S
WINFIELD       SUNNY     83  68  60 SW16      30.11S
$$

KSZ007>012-019>026-033>040-048>060-102>105-121600-
NORTHEAST KANSAS

CITY           SKY/WX    TMP DP  RH WIND       PRES   REMARKS
CONCORDIA      SUNNY     83  67  58 S15G24    30.00F
EMPORIA        SUNNY     84  65  52 SW14G21   30.07S
LAWRENCE       MOSUNNY   84  67  56 SW10G20   30.04F
MANHATTAN      SUNNY     87  65  47 SW13      30.02S
MARYSVILLE     MOSUNNY   82  68  61 S13       30.01S
OLATHE IND     SUNNY     84  68  58 SW16G23   30.07S
OLATHE EXE     SUNNY     83  69  62 SW8       30.07S
SALINA         SUNNY     88  65  46 SW20      30.02F
TOPEKA BILLARD MOSUNNY   83  67  58 S8        30.03F
TOPEKA FORBES  MOSUNNY   83  65  54 SW13G21   30.04F
$$



USA.gov is the U.S. government's official web portal to all federal, state and local government web resources and services.